DMSP 5D-2 F13 DEB, 40477

Orbit data source: Space-Track

DMSP 5D-2 F13 DEB, 40477 is space debris in SSO originally from a launch on Fri, 24 Mar 1995 UTC launched from the Air Force Western Test Range (AFWTR). Debris objects in space refer to the collection of defunct objects orbiting the Earth. Examples of debris include non-operational satellites, rocket bodies, and fragments generated from explosions, collisions, or faulty payload assembly.

Loading next visibility...
Identifier
40477, 1995-015BV
Orbit
SSO
Country
Flag of USUS
Related business
Manufacturer
Unknown
Mission
Spacecraft
Bus & Motor
Unknown
Mass
Unknown
Launch date (UTC)
1995-03-24 (31 years ago)
Launch vehicle
Unknown
Launch site
Air Force Western Test Range (AFWTR)
Object type
Payload
Rocket body
Debris
Shape & HBR
Unknown shape, 0.1 m
Radar Cross Section
Small (<0.1 m²)

Expand to show TLE details & history
Last TLE update: 18 hours ago

TLE from 18 hours ago
0 DMSP 5D-2 F13 DEB
1 40477U 95015BV  25298.05850658  .00007983  00000-0  23268-2 0  9995
2 40477  98.5853 335.3465 0020802 221.9133 138.0466 14.44282549553457
Epoch: 2025-10-25T01:24Z
TLE epoch observation values (Epoch: 2025-10-25T01:24:14.968Z)
Latitude
0.00001°
Longitude
-79.41037°
Altitude
758.37 km
Speed
7.469 km/s
True Right ascension
22h 21m 23s
True Declination
0° 00' 00"
Sunlit
Object was in full shadow at epoch
Visualization orbit readout
Latitude
Unknown
Longitude
Unknown
Altitude
Unknown
Speed
Unknown
Apparent Right ascension
Unknown
Apparent Declination
Unknown
Sunlit
N/A
Visualization observer readout
Local Sidereal Time
14:55:08
Azimuth
Unknown
Elevation
Unknown
Doppler factor
Unknown
Orbital elements
Apogee altitude
756.314 km
Perigee altitude
726.694 km
Semi-major axis
7,119.641 km
Eccentricity
0.00208
Inclination
98.5853°
RAAN
335.3465°
Arg. of periapsis
221.9133°
True anomaly
138.20565°
Mean anomaly
138.0466°
Eccentric anomaly
138.12616°
Mean motion
3.6129 °/min
Orbital period
99.64 mins
BSTAR
0.0023268
Loading maneuver chart data...
Computing Atmospheric mass density...

Documentation

Showing up to 5 results
|